User: anonymous   Login
Location: Camp Creek
(33.9000°N, 111.8167°W)
Time: 08:12:54
(UTC-07:00)
Language:

Cosmos 2322 Rocket - Orbit

View from above orbital plane
View from above orbital plane
View from above satellite
View from above satellite

Ground track
Ground track

The orbit data is extracted from the following two-line orbital elements,

1 23705U 95058B   17086.52392693 -.00000318 +00000-0 -13957-3 0  9997
2 23705 071.0224 200.3676 0010448 056.4785 303.7335 14.15098792105333
Epoch (UTC): 27 March 2017 12:34:27
Eccentricity: 0.0010448
inclination: 71.0224°
perigee height: 834 km
apogee height: 849 km
right ascension of ascending node: 200.3676°
argument of perigee: 56.4785°
revolutions per day: 14.15098792
mean anomaly at epoch: 303.7335°
orbit number at epoch: 10533

The dashed part of the orbit path shows where the satellite is in the earth's shadow,  

DLR